Time,TemperatureF,DewpointF,PressureIn,WindDirection,WindDirectionDegrees,WindSpeedMPH,WindSpeedGustMPH,Humidity,HourlyPrecipIn,Conditions,Clouds,dailyrainin,SolarRadiationWatts/m^2,SoftwareType,DateUTC
2013-11-16 00:01:00,45.0,37.0,-100.00,SSE,150,0.0,4.0,74,0.00,,,0.00,0.000000,,2013-11-16 08:01:00,
2013-11-16 00:11:00,45.0,37.0,-100.00,SSE,150,0.0,4.0,74,0.00,,,0.00,0.000000,,2013-11-16 08:11:00,
2013-11-16 00:22:00,45.0,37.0,-100.00,SSE,150,0.0,4.0,74,0.00,,,0.00,0.000000,,2013-11-16 08:22:00,
2013-11-16 00:52:00,42.0,36.0,-100.00,SE,136,0.0,4.0,80,0.00,,,0.00,0.000000,,2013-11-16 08:52:00,
2013-11-16 01:02:00,42.0,36.0,-100.00,SE,136,0.0,4.0,80,0.00,,,0.00,0.000000,,2013-11-16 09:02:00,
2013-11-16 01:11:00,42.0,36.0,-100.00,SE,136,0.0,4.0,80,0.00,,,0.00,0.000000,,2013-11-16 09:11:00,
2013-11-16 01:22:00,42.0,36.0,-100.00,SE,136,0.0,4.0,80,0.00,,,0.00,0.000000,,2013-11-16 09:22:00,
2013-11-16 01:53:00,42.0,36.0,-100.00,SE,141,0.0,4.0,78,0.00,,,0.00,0.000000,,2013-11-16 09:53:00,
2013-11-16 02:03:00,42.0,36.0,-100.00,SE,141,0.0,4.0,78,0.00,,,0.00,0.000000,,2013-11-16 10:03:00,
2013-11-16 02:12:00,42.0,36.0,-100.00,SE,141,0.0,4.0,78,0.00,,,0.00,0.000000,,2013-11-16 10:12:00,
2013-11-16 02:23:00,42.0,36.0,-100.00,SE,141,0.0,4.0,78,0.00,,,0.00,0.000000,,2013-11-16 10:23:00,
2013-11-16 02:52:00,42.0,36.0,-100.00,SE,133,0.0,4.0,79,0.00,,,0.00,0.000000,,2013-11-16 10:52:00,
2013-11-16 03:02:00,42.0,36.0,-100.00,SE,133,0.0,4.0,79,0.00,,,0.00,0.000000,,2013-11-16 11:02:00,
2013-11-16 03:12:00,42.0,36.0,-100.00,SE,133,0.0,4.0,79,0.00,,,0.00,0.000000,,2013-11-16 11:12:00,
2013-11-16 03:22:00,42.0,36.0,-100.00,SE,133,0.0,4.0,79,0.00,,,0.00,0.000000,,2013-11-16 11:22:00,
2013-11-16 03:53:00,41.0,35.0,-100.00,SE,133,0.0,3.0,79,0.00,,,0.00,0.000000,,2013-11-16 11:53:00,
2013-11-16 04:02:00,41.0,35.0,-100.00,SE,133,0.0,3.0,79,0.00,,,0.00,0.000000,,2013-11-16 12:02:00,
2013-11-16 04:12:00,41.0,35.0,-100.00,SE,133,0.0,3.0,79,0.00,,,0.00,0.000000,,2013-11-16 12:12:00,
2013-11-16 04:21:00,41.0,35.0,-100.00,SE,133,0.0,3.0,79,0.00,,,0.00,0.000000,,2013-11-16 12:21:00,
2013-11-16 04:52:00,42.0,36.0,-100.00,SE,135,0.0,4.0,80,0.00,,,0.00,0.000000,,2013-11-16 12:52:00,
2013-11-16 05:01:00,42.0,36.0,-100.00,SE,135,0.0,4.0,80,0.00,,,0.00,0.000000,,2013-11-16 13:01:00,
2013-11-16 05:11:00,42.0,36.0,-100.00,SE,135,0.0,4.0,80,0.00,,,0.00,0.000000,,2013-11-16 13:11:00,
2013-11-16 05:21:00,42.0,36.0,-100.00,SE,135,0.0,4.0,80,0.00,,,0.00,0.000000,,2013-11-16 13:21:00,
2013-11-16 05:52:00,41.0,35.0,-100.00,SE,146,0.0,4.0,79,0.00,,,0.00,0.000000,,2013-11-16 13:52:00,
2013-11-16 06:02:00,41.0,35.0,-100.00,SE,146,0.0,4.0,79,0.00,,,0.00,0.000000,,2013-11-16 14:02:00,
2013-11-16 06:11:00,41.0,35.0,-100.00,SE,146,0.0,4.0,79,0.00,,,0.00,0.000000,,2013-11-16 14:11:00,
2013-11-16 06:21:00,41.0,35.0,-100.00,SE,146,0.0,4.0,79,0.00,,,0.00,0.000000,,2013-11-16 14:21:00,
2013-11-16 06:52:00,43.0,37.0,-100.00,South,175,0.0,4.0,80,0.00,,,0.00,0.000000,,2013-11-16 14:52:00,
2013-11-16 07:02:00,43.0,37.0,-100.00,South,175,0.0,4.0,80,0.00,,,0.00,0.000000,,2013-11-16 15:02:00,
2013-11-16 07:11:00,43.0,37.0,-100.00,South,175,0.0,4.0,80,0.00,,,0.00,0.000000,,2013-11-16 15:11:00,
2013-11-16 07:21:00,43.0,37.0,-100.00,South,175,0.0,4.0,80,0.00,,,0.00,0.000000,,2013-11-16 15:21:00,
2013-11-16 07:53:00,42.0,36.0,-100.00,SE,141,0.0,0.0,78,0.00,,,0.00,5.000000,,2013-11-16 15:53:00,
2013-11-16 08:03:00,42.0,36.0,-100.00,SE,141,0.0,0.0,78,0.00,,,0.00,5.000000,,2013-11-16 16:03:00,
2013-11-16 08:13:00,42.0,36.0,-100.00,SE,141,0.0,0.0,78,0.00,,,0.00,5.000000,,2013-11-16 16:13:00,
2013-11-16 08:23:00,42.0,36.0,-100.00,SE,141,0.0,0.0,78,0.00,,,0.00,5.000000,,2013-11-16 16:23:00,
2013-11-16 08:53:00,45.0,39.0,-100.00,ESE,119,0.0,4.0,78,0.00,,,0.00,53.000000,,2013-11-16 16:53:00,
2013-11-16 09:02:00,45.0,39.0,-100.00,ESE,119,0.0,4.0,78,0.00,,,0.00,53.000000,,2013-11-16 17:02:00,
2013-11-16 09:12:00,45.0,39.0,-100.00,ESE,119,0.0,4.0,78,0.00,,,0.00,53.000000,,2013-11-16 17:12:00,
2013-11-16 09:22:00,45.0,39.0,-100.00,ESE,119,0.0,4.0,78,0.00,,,0.00,53.000000,,2013-11-16 17:22:00,
2013-11-16 09:52:00,55.0,39.0,-100.00,NW,306,0.0,4.0,54,0.00,,,0.00,245.000000,,2013-11-16 17:52:00,
2013-11-16 10:02:00,55.0,39.0,-100.00,NW,306,0.0,4.0,54,0.00,,,0.00,245.000000,,2013-11-16 18:02:00,
2013-11-16 10:12:00,55.0,39.0,-100.00,NW,306,0.0,4.0,54,0.00,,,0.00,245.000000,,2013-11-16 18:12:00,
2013-11-16 10:23:00,55.0,39.0,-100.00,NW,306,0.0,4.0,54,0.00,,,0.00,245.000000,,2013-11-16 18:23:00,
2013-11-16 10:52:00,58.0,39.0,-100.00,WSW,254,5.0,9.0,50,0.00,,,0.00,373.000000,,2013-11-16 18:52:00,
2013-11-16 11:02:00,58.0,39.0,-100.00,WSW,254,5.0,9.0,50,0.00,,,0.00,373.000000,,2013-11-16 19:02:00,
2013-11-16 11:12:00,58.0,39.0,-100.00,WSW,254,5.0,9.0,50,0.00,,,0.00,373.000000,,2013-11-16 19:12:00,
2013-11-16 11:22:00,58.0,39.0,-100.00,WSW,254,5.0,9.0,50,0.00,,,0.00,373.000000,,2013-11-16 19:22:00,
2013-11-16 11:53:00,61.0,38.0,-100.00,WSW,242,4.0,11.0,43,0.00,,,0.00,534.000000,,2013-11-16 19:53:00,
2013-11-16 12:01:00,61.0,38.0,-100.00,WSW,242,4.0,11.0,43,0.00,,,0.00,534.000000,,2013-11-16 20:01:00,
2013-11-16 12:12:00,61.0,38.0,-100.00,WSW,242,4.0,11.0,43,0.00,,,0.00,534.000000,,2013-11-16 20:12:00,
2013-11-16 12:22:00,61.0,38.0,-100.00,WSW,242,4.0,11.0,43,0.00,,,0.00,534.000000,,2013-11-16 20:22:00,
2013-11-16 13:01:00,61.0,36.0,-100.00,SW,224,4.0,17.0,39,0.00,,,0.00,740.000000,,2013-11-16 21:01:00,
2013-11-16 13:11:00,61.0,36.0,-100.00,SW,224,4.0,17.0,39,0.00,,,0.00,740.000000,,2013-11-16 21:11:00,
2013-11-16 13:21:00,61.0,36.0,-100.00,SW,224,4.0,17.0,39,0.00,,,0.00,740.000000,,2013-11-16 21:21:00,
2013-11-16 13:54:00,60.0,33.0,-100.00,SSW,213,6.0,12.0,36,0.00,,,0.00,661.000000,,2013-11-16 21:54:00,
2013-11-16 14:04:00,60.0,33.0,-100.00,SSW,213,6.0,12.0,36,0.00,,,0.00,661.000000,,2013-11-16 22:04:00,
2013-11-16 14:13:00,60.0,33.0,-100.00,SSW,213,6.0,12.0,36,0.00,,,0.00,661.000000,,2013-11-16 22:13:00,
2013-11-16 14:24:00,60.0,33.0,-100.00,SSW,213,6.0,12.0,36,0.00,,,0.00,661.000000,,2013-11-16 22:24:00,
2013-11-16 14:53:00,62.0,33.0,-100.00,SW,221,4.0,15.0,33,0.00,,,0.00,601.000000,,2013-11-16 22:53:00,
2013-11-16 15:03:00,62.0,33.0,-100.00,SW,221,4.0,15.0,33,0.00,,,0.00,601.000000,,2013-11-16 23:03:00,
2013-11-16 15:13:00,62.0,33.0,-100.00,SW,221,4.0,15.0,33,0.00,,,0.00,601.000000,,2013-11-16 23:13:00,
2013-11-16 15:22:00,62.0,33.0,-100.00,SW,221,4.0,15.0,33,0.00,,,0.00,601.000000,,2013-11-16 23:22:00,
2013-11-16 15:53:00,60.0,32.0,-100.00,SSW,208,2.0,12.0,34,0.00,,,0.00,227.000000,,2013-11-16 23:53:00,
2013-11-16 16:02:00,60.0,32.0,-100.00,SSW,208,2.0,12.0,34,0.00,,,0.00,227.000000,,2013-11-17 00:02:00,
2013-11-16 16:12:00,60.0,32.0,-100.00,SSW,208,2.0,12.0,34,0.00,,,0.00,227.000000,,2013-11-17 00:12:00,
2013-11-16 16:21:00,60.0,32.0,-100.00,SSW,208,2.0,12.0,34,0.00,,,0.00,227.000000,,2013-11-17 00:21:00,
2013-11-16 16:52:00,58.0,28.0,-100.00,SSW,196,2.0,9.0,32,0.00,,,0.00,59.000000,,2013-11-17 00:52:00,
2013-11-16 17:01:00,58.0,28.0,-100.00,SSW,196,2.0,9.0,32,0.00,,,0.00,59.000000,,2013-11-17 01:01:00,
2013-11-16 17:12:00,58.0,28.0,-100.00,SSW,196,2.0,9.0,32,0.00,,,0.00,59.000000,,2013-11-17 01:12:00,
2013-11-16 17:21:00,58.0,28.0,-100.00,SSW,196,2.0,9.0,32,0.00,,,0.00,59.000000,,2013-11-17 01:21:00,
2013-11-16 17:52:00,56.0,27.0,-100.00,South,188,0.0,10.0,32,0.00,,,0.00,11.000000,,2013-11-17 01:52:00,
2013-11-16 18:01:00,56.0,27.0,-100.00,South,188,0.0,10.0,32,0.00,,,0.00,11.000000,,2013-11-17 02:01:00,
2013-11-16 18:11:00,56.0,27.0,-100.00,South,188,0.0,10.0,32,0.00,,,0.00,11.000000,,2013-11-17 02:11:00,
2013-11-16 18:21:00,56.0,27.0,-100.00,South,188,0.0,10.0,32,0.00,,,0.00,11.000000,,2013-11-17 02:21:00,
2013-11-16 18:52:00,51.0,27.0,-100.00,South,179,0.0,5.0,39,0.00,,,0.00,0.000000,,2013-11-17 02:52:00,
2013-11-16 19:02:00,51.0,27.0,-100.00,South,179,0.0,5.0,39,0.00,,,0.00,0.000000,,2013-11-17 03:02:00,
2013-11-16 19:12:00,51.0,27.0,-100.00,South,179,0.0,5.0,39,0.00,,,0.00,0.000000,,2013-11-17 03:12:00,
2013-11-16 19:22:00,51.0,27.0,-100.00,South,179,0.0,5.0,39,0.00,,,0.00,0.000000,,2013-11-17 03:22:00,
2013-11-16 19:56:00,50.0,27.0,-100.00,SSE,149,0.0,7.0,40,0.00,,,0.00,0.000000,,2013-11-17 03:56:00,
2013-11-16 20:02:00,-999.0,-99.9,-100.00,SSE,149,0.0,7.0,-999,-99.99,,,-99.99,0.000000,,2013-11-17 04:02:00,
2013-11-16 20:14:00,50.0,27.0,-100.00,SSE,149,0.0,7.0,40,0.00,,,0.00,0.000000,,2013-11-17 04:14:00,
2013-11-16 20:24:00,50.0,27.0,-100.00,SSE,149,0.0,7.0,40,0.00,,,0.00,0.000000,,2013-11-17 04:24:00,
2013-11-16 20:53:00,49.0,27.0,-100.00,SE,142,0.0,3.0,43,0.00,,,0.00,0.000000,,2013-11-17 04:53:00,
2013-11-16 21:03:00,49.0,27.0,-100.00,SE,142,0.0,3.0,43,0.00,,,0.00,0.000000,,2013-11-17 05:03:00,
2013-11-16 21:13:00,49.0,27.0,-100.00,SE,142,0.0,3.0,43,0.00,,,0.00,0.000000,,2013-11-17 05:13:00,
2013-11-16 21:23:00,49.0,27.0,-100.00,SE,142,0.0,3.0,43,0.00,,,0.00,0.000000,,2013-11-17 05:23:00,
2013-11-16 21:53:00,46.0,28.0,-100.00,SSE,164,0.0,4.0,50,0.00,,,0.00,0.000000,,2013-11-17 05:53:00,
2013-11-16 22:02:00,46.0,28.0,-100.00,SSE,164,0.0,4.0,50,0.00,,,0.00,0.000000,,2013-11-17 06:02:00,
2013-11-16 22:13:00,46.0,28.0,-100.00,SSE,164,0.0,4.0,50,0.00,,,0.00,0.000000,,2013-11-17 06:13:00,
2013-11-16 22:22:00,46.0,28.0,-100.00,SSE,164,0.0,4.0,50,0.00,,,0.00,0.000000,,2013-11-17 06:22:00,
2013-11-16 22:52:00,46.0,28.0,-100.00,SSW,207,0.0,6.0,49,0.00,,,0.00,0.000000,,2013-11-17 06:52:00,
2013-11-16 23:02:00,46.0,28.0,-100.00,SSW,207,0.0,6.0,49,0.00,,,0.00,0.000000,,2013-11-17 07:02:00,
2013-11-16 23:12:00,46.0,28.0,-100.00,SSW,207,0.0,6.0,49,0.00,,,0.00,0.000000,,2013-11-17 07:12:00,
2013-11-16 23:21:00,46.0,28.0,-100.00,SSW,207,0.0,6.0,49,0.00,,,0.00,0.000000,,2013-11-17 07:21:00,
2013-11-16 23:53:00,46.0,29.0,-100.00,SSE,154,0.0,3.0,52,0.00,,,0.00,0.000000,,2013-11-17 07:53:00,